Time,TemperatureF,DewpointF,PressureIn,WindDirection,WindDirectionDegrees,WindSpeedMPH,WindSpeedGustMPH,Humidity,HourlyPrecipIn,Conditions,Clouds,dailyrainin,SoftwareType,DateUTC
2013-10-15 00:02:00,71.3,63.3,29.90,North,359,0.0,0.0,76,0.00,,,0.00,Wunderground v.1.15,2013-10-15 04:02:00,
2013-10-15 00:03:00,71.3,63.3,29.90,North,359,0.0,0.0,76,0.00,,,0.00,Wunderground v.1.15,2013-10-15 04:03:00,
2013-10-15 00:04:00,71.3,63.3,29.90,North,359,0.0,0.0,76,0.00,,,0.00,Wunderground v.1.15,2013-10-15 04:04:00,
2013-10-15 00:06:00,71.1,63.1,29.90,North,359,0.0,0.0,76,0.00,,,0.00,Wunderground v.1.15,2013-10-15 04:06:00,
2013-10-15 00:09:00,71.1,63.1,29.90,NNE,23,0.0,0.0,76,0.00,,,0.00,Wunderground v.1.15,2013-10-15 04:09:00,
2013-10-15 00:14:00,70.9,63.3,29.90,East,95,0.0,0.0,77,0.00,,,0.00,Wunderground v.1.15,2013-10-15 04:14:00,
2013-10-15 00:20:00,70.9,63.3,29.90,NE,47,0.0,0.0,77,0.00,,,0.00,Wunderground v.1.15,2013-10-15 04:20:00,
2013-10-15 00:25:00,70.8,63.2,29.90,NE,47,0.0,0.0,77,0.00,,,0.00,Wunderground v.1.15,2013-10-15 04:25:00,
2013-10-15 00:31:00,70.8,63.2,29.89,NE,47,0.0,0.0,77,0.00,,,0.00,Wunderground v.1.15,2013-10-15 04:31:00,
2013-10-15 00:37:00,70.6,63.4,29.89,NE,47,0.0,0.0,78,0.00,,,0.00,Wunderground v.1.15,2013-10-15 04:37:00,
2013-10-15 00:42:00,70.6,63.4,29.89,NE,47,0.0,0.0,78,0.00,,,0.00,Wunderground v.1.15,2013-10-15 04:42:00,
2013-10-15 00:48:00,70.4,63.2,29.89,NE,47,0.0,0.0,78,0.00,,,0.00,Wunderground v.1.15,2013-10-15 04:48:00,
2013-10-15 00:54:00,70.3,63.5,29.89,ESE,117,0.0,0.0,79,0.00,,,0.00,Wunderground v.1.15,2013-10-15 04:54:00,
2013-10-15 00:59:00,70.3,63.5,29.89,NNE,20,0.0,0.0,79,0.00,,,0.00,Wunderground v.1.15,2013-10-15 04:59:00,
2013-10-15 01:05:00,70.3,63.5,29.89,NNE,16,0.0,0.0,79,0.00,,,0.00,Wunderground v.1.15,2013-10-15 05:05:00,
2013-10-15 01:10:00,70.1,63.3,29.89,NNE,16,0.0,0.0,79,0.00,,,0.00,Wunderground v.1.15,2013-10-15 05:10:00,
2013-10-15 01:16:00,70.1,63.6,29.89,NNW,344,0.0,0.0,80,0.00,,,0.00,Wunderground v.1.15,2013-10-15 05:16:00,
2013-10-15 01:22:00,69.9,63.4,29.89,NNW,329,0.0,0.0,80,0.00,,,0.00,Wunderground v.1.15,2013-10-15 05:22:00,
2013-10-15 01:27:00,69.9,63.4,29.89,NNE,21,0.0,0.0,80,0.00,,,0.00,Wunderground v.1.15,2013-10-15 05:27:00,
2013-10-15 01:33:00,69.8,63.3,29.88,North,353,0.0,0.0,80,0.00,,,0.00,Wunderground v.1.15,2013-10-15 05:33:00,
2013-10-15 01:39:00,69.8,63.3,29.88,East,93,0.0,0.0,80,0.00,,,0.00,Wunderground v.1.15,2013-10-15 05:39:00,
2013-10-15 01:45:00,69.8,63.7,29.88,East,92,0.0,0.0,81,0.00,,,0.00,Wunderground v.1.15,2013-10-15 05:45:00,
2013-10-15 01:50:00,69.8,63.7,29.88,East,93,0.0,0.0,81,0.00,,,0.00,Wunderground v.1.15,2013-10-15 05:50:00,
2013-10-15 01:56:00,69.6,63.5,29.88,East,88,0.0,0.0,81,0.00,,,0.00,Wunderground v.1.15,2013-10-15 05:56:00,
2013-10-15 02:01:00,69.6,63.5,29.87,East,88,0.0,0.0,81,0.00,,,0.00,Wunderground v.1.15,2013-10-15 06:01:00,
2013-10-15 02:06:00,69.6,63.5,29.87,East,97,0.0,2.0,81,0.00,,,0.00,Wunderground v.1.15,2013-10-15 06:06:00,
2013-10-15 02:11:00,69.4,63.3,29.87,North,0,0.0,0.0,81,0.00,,,0.00,Wunderground v.1.15,2013-10-15 06:11:00,
2013-10-15 02:16:00,69.3,63.6,29.87,North,0,0.0,0.0,82,0.00,,,0.00,Wunderground v.1.15,2013-10-15 06:16:00,
2013-10-15 02:21:00,69.3,63.6,29.87,North,0,0.0,0.0,82,0.00,,,0.00,Wunderground v.1.15,2013-10-15 06:21:00,
2013-10-15 02:26:00,69.1,63.4,29.87,North,0,0.0,0.0,82,0.00,,,0.00,Wunderground v.1.15,2013-10-15 06:26:00,
2013-10-15 02:31:00,69.1,63.4,29.86,North,0,0.0,0.0,82,0.00,,,0.00,Wunderground v.1.15,2013-10-15 06:31:00,
2013-10-15 02:36:00,68.9,63.2,29.86,North,0,0.0,0.0,82,0.00,,,0.00,Wunderground v.1.15,2013-10-15 06:36:00,
2013-10-15 02:41:00,68.9,63.2,29.86,East,96,0.0,0.0,82,0.00,,,0.00,Wunderground v.1.15,2013-10-15 06:41:00,
2013-10-15 02:46:00,68.9,63.5,29.86,East,97,0.0,0.0,83,0.00,,,0.00,Wunderground v.1.15,2013-10-15 06:46:00,
2013-10-15 02:51:00,68.8,63.4,29.86,NE,44,0.0,0.0,83,0.00,,,0.00,Wunderground v.1.15,2013-10-15 06:51:00,
2013-10-15 02:56:00,68.8,63.4,29.86,NE,44,0.0,0.0,83,0.00,,,0.00,Wunderground v.1.15,2013-10-15 06:56:00,
2013-10-15 03:02:00,68.6,63.2,29.86,North,8,0.0,0.0,83,0.00,,,0.00,Wunderground v.1.15,2013-10-15 07:02:00,
2013-10-15 03:07:00,68.6,63.2,29.86,NNE,28,0.0,0.0,83,0.00,,,0.00,Wunderground v.1.15,2013-10-15 07:07:00,
2013-10-15 03:12:00,68.6,63.2,29.86,ENE,58,0.0,0.0,83,0.00,,,0.00,Wunderground v.1.15,2013-10-15 07:12:00,
2013-10-15 03:17:00,68.4,63.0,29.85,NE,38,0.0,0.0,83,0.00,,,0.00,Wunderground v.1.15,2013-10-15 07:17:00,
2013-10-15 03:22:00,68.4,63.4,29.85,NNE,32,0.0,0.0,84,0.00,,,0.00,Wunderground v.1.15,2013-10-15 07:22:00,
2013-10-15 03:27:00,68.4,63.4,29.85,NE,51,0.0,0.0,84,0.00,,,0.00,Wunderground v.1.15,2013-10-15 07:27:00,
2013-10-15 03:32:00,68.4,63.4,29.86,NE,51,0.0,0.0,84,0.00,,,0.00,Wunderground v.1.15,2013-10-15 07:32:00,
2013-10-15 03:37:00,68.4,63.4,29.86,NE,51,0.0,0.0,84,0.00,,,0.00,Wunderground v.1.15,2013-10-15 07:37:00,
2013-10-15 03:42:00,68.4,63.4,29.86,NE,51,0.0,0.0,84,0.00,,,0.00,Wunderground v.1.15,2013-10-15 07:42:00,
2013-10-15 03:47:00,68.4,63.4,29.85,North,352,0.0,0.0,84,0.00,,,0.00,Wunderground v.1.15,2013-10-15 07:47:00,
2013-10-15 03:52:00,68.4,63.4,29.85,East,96,0.0,0.0,84,0.00,,,0.00,Wunderground v.1.15,2013-10-15 07:52:00,
2013-10-15 03:57:00,68.3,63.3,29.85,East,96,0.0,0.0,84,0.00,,,0.00,Wunderground v.1.15,2013-10-15 07:57:00,
2013-10-15 04:02:00,68.3,63.3,29.85,East,96,0.0,0.0,84,0.00,,,0.00,Wunderground v.1.15,2013-10-15 08:02:00,
2013-10-15 04:07:00,68.1,63.4,29.85,East,97,0.0,0.0,85,0.00,,,0.00,Wunderground v.1.15,2013-10-15 08:07:00,
2013-10-15 04:12:00,68.1,63.4,29.85,North,10,0.0,0.0,85,0.00,,,0.00,Wunderground v.1.15,2013-10-15 08:12:00,
2013-10-15 04:17:00,68.1,63.4,29.85,North,11,0.0,0.0,85,0.00,,,0.00,Wunderground v.1.15,2013-10-15 08:17:00,
2013-10-15 04:22:00,67.9,63.2,29.85,North,11,0.0,0.0,85,0.00,,,0.00,Wunderground v.1.15,2013-10-15 08:22:00,
2013-10-15 04:27:00,67.9,63.2,29.85,NNW,347,0.0,0.0,85,0.00,,,0.00,Wunderground v.1.15,2013-10-15 08:27:00,
2013-10-15 04:32:00,67.8,63.1,29.85,NE,35,0.0,0.0,85,0.00,,,0.00,Wunderground v.1.15,2013-10-15 08:32:00,
2013-10-15 04:37:00,67.8,63.1,29.85,ESE,106,0.0,0.0,85,0.00,,,0.00,Wunderground v.1.15,2013-10-15 08:37:00,
2013-10-15 04:42:00,67.8,63.1,29.85,ESE,106,0.0,0.0,85,0.00,,,0.00,Wunderground v.1.15,2013-10-15 08:42:00,
2013-10-15 04:47:00,67.8,63.5,29.85,ESE,102,0.0,0.0,86,0.00,,,0.00,Wunderground v.1.15,2013-10-15 08:47:00,
2013-10-15 04:50:00,67.8,63.5,29.85,East,88,0.0,0.0,86,0.00,,,0.00,Wunderground v.1.15,2013-10-15 08:50:00,
2013-10-15 04:55:00,67.8,63.5,29.85,NNE,14,0.0,0.0,86,0.00,,,0.00,Wunderground v.1.15,2013-10-15 08:55:00,
2013-10-15 05:00:00,67.8,63.5,29.85,NNW,343,0.0,0.0,86,0.00,,,0.00,Wunderground v.1.15,2013-10-15 09:00:00,
2013-10-15 05:05:00,67.6,63.3,29.86,NNW,343,0.0,0.0,86,0.00,,,0.00,Wunderground v.1.15,2013-10-15 09:05:00,
2013-10-15 05:10:00,67.6,63.3,29.86,NNE,18,0.0,0.0,86,0.00,,,0.00,Wunderground v.1.15,2013-10-15 09:10:00,
2013-10-15 05:15:00,67.6,63.3,29.86,NNE,18,0.0,0.0,86,0.00,,,0.00,Wunderground v.1.15,2013-10-15 09:15:00,
2013-10-15 05:20:00,67.6,63.3,29.85,North,350,0.0,0.0,86,0.00,,,0.00,Wunderground v.1.15,2013-10-15 09:20:00,
2013-10-15 05:25:00,67.6,63.3,29.85,North,349,0.0,0.0,86,0.00,,,0.00,Wunderground v.1.15,2013-10-15 09:25:00,
2013-10-15 05:30:00,67.6,63.3,29.85,North,352,0.0,0.0,86,0.00,,,0.00,Wunderground v.1.15,2013-10-15 09:30:00,
2013-10-15 05:35:00,67.6,63.3,29.86,North,352,0.0,0.0,86,0.00,,,0.00,Wunderground v.1.15,2013-10-15 09:35:00,
2013-10-15 05:40:00,67.6,63.3,29.86,North,0,0.0,0.0,86,0.00,,,0.00,Wunderground v.1.15,2013-10-15 09:40:00,
2013-10-15 05:45:00,67.6,63.3,29.86,North,0,0.0,0.0,86,0.00,,,0.00,Wunderground v.1.15,2013-10-15 09:45:00,
2013-10-15 05:50:00,67.6,63.6,29.86,North,0,0.0,0.0,87,0.00,,,0.00,Wunderground v.1.15,2013-10-15 09:50:00,
2013-10-15 05:55:00,67.6,63.6,29.86,North,357,0.0,1.0,87,0.00,,,0.00,Wunderground v.1.15,2013-10-15 09:55:00,
2013-10-15 06:00:00,67.6,63.6,29.86,North,0,0.0,0.0,87,0.00,,,0.00,Wunderground v.1.15,2013-10-15 10:00:00,
2013-10-15 06:05:00,67.6,63.6,29.86,North,0,0.0,1.0,87,0.00,,,0.00,Wunderground v.1.15,2013-10-15 10:05:00,
2013-10-15 06:10:00,67.6,63.6,29.86,North,0,0.0,0.0,87,0.00,,,0.00,Wunderground v.1.15,2013-10-15 10:10:00,
2013-10-15 06:15:00,67.6,63.6,29.86,North,7,0.0,0.0,87,0.00,,,0.00,Wunderground v.1.15,2013-10-15 10:15:00,
2013-10-15 06:20:00,67.6,63.6,29.86,North,0,0.0,0.0,87,0.00,,,0.00,Wunderground v.1.15,2013-10-15 10:20:00,
2013-10-15 06:25:00,67.6,63.6,29.86,North,0,0.0,0.0,87,0.00,,,0.00,Wunderground v.1.15,2013-10-15 10:25:00,
2013-10-15 06:30:00,67.6,63.6,29.86,North,0,0.0,0.0,87,0.00,,,0.00,Wunderground v.1.15,2013-10-15 10:30:00,
2013-10-15 06:35:00,67.4,63.4,29.86,North,0,0.0,0.0,87,0.00,,,0.00,Wunderground v.1.15,2013-10-15 10:35:00,
2013-10-15 06:40:00,67.4,63.4,29.86,WNW,299,0.0,0.0,87,0.00,,,0.00,Wunderground v.1.15,2013-10-15 10:40:00,
2013-10-15 06:45:00,67.4,63.4,29.86,NW,326,0.0,0.0,87,0.00,,,0.00,Wunderground v.1.15,2013-10-15 10:45:00,
2013-10-15 06:50:00,67.4,63.4,29.87,North,0,0.0,0.0,87,0.00,,,0.00,Wunderground v.1.15,2013-10-15 10:50:00,
2013-10-15 06:56:00,67.4,63.4,29.87,North,11,0.0,0.0,87,0.00,,,0.00,Wunderground v.1.15,2013-10-15 10:56:00,
2013-10-15 07:01:00,67.4,63.4,29.87,North,0,0.0,0.0,87,0.00,,,0.00,Wunderground v.1.15,2013-10-15 11:01:00,
2013-10-15 07:05:00,67.3,63.3,29.86,North,0,0.0,0.0,87,0.00,,,0.00,Wunderground v.1.15,2013-10-15 11:05:00,
2013-10-15 07:10:00,67.3,63.3,29.86,North,0,0.0,0.0,87,0.00,,,0.00,Wunderground v.1.15,2013-10-15 11:10:00,
2013-10-15 07:16:00,67.3,63.3,29.86,North,10,0.0,0.0,87,0.00,,,0.00,Wunderground v.1.15,2013-10-15 11:16:00,
2013-10-15 07:21:00,67.1,63.1,29.87,North,357,0.0,3.0,87,0.00,,,0.00,Wunderground v.1.15,2013-10-15 11:21:00,
2013-10-15 07:26:00,67.1,63.1,29.87,North,1,0.0,3.0,87,0.00,,,0.00,Wunderground v.1.15,2013-10-15 11:26:00,
2013-10-15 07:31:00,67.1,63.4,29.87,North,1,0.0,3.0,88,0.00,,,0.00,Wunderground v.1.15,2013-10-15 11:31:00,
2013-10-15 07:36:00,67.1,63.4,29.87,SE,144,0.0,3.0,88,0.00,,,0.00,Wunderground v.1.15,2013-10-15 11:36:00,
2013-10-15 07:41:00,67.1,63.4,29.87,SE,133,0.0,0.0,88,0.00,,,0.00,Wunderground v.1.15,2013-10-15 11:41:00,
2013-10-15 07:46:00,67.1,63.4,29.87,North,4,0.0,2.0,88,0.00,,,0.00,Wunderground v.1.15,2013-10-15 11:46:00,
2013-10-15 07:51:00,66.9,63.2,29.87,North,354,0.0,0.0,88,0.00,,,0.00,Wunderground v.1.15,2013-10-15 11:51:00,
2013-10-15 07:56:00,66.9,63.2,29.87,North,353,0.0,0.0,88,0.00,,,0.00,Wunderground v.1.15,2013-10-15 11:56:00,
2013-10-15 08:01:00,66.9,63.2,29.88,North,356,0.0,0.0,88,0.00,,,0.00,Wunderground v.1.15,2013-10-15 12:01:00,
2013-10-15 08:06:00,66.9,63.2,29.88,NNW,335,0.0,0.0,88,0.00,,,0.00,Wunderground v.1.15,2013-10-15 12:06:00,
2013-10-15 08:11:00,66.9,63.2,29.88,SE,143,0.0,0.0,88,0.00,,,0.00,Wunderground v.1.15,2013-10-15 12:11:00,
2013-10-15 08:16:00,66.9,63.2,29.89,North,0,0.0,0.0,88,0.00,,,0.00,Wunderground v.1.15,2013-10-15 12:16:00,
2013-10-15 08:21:00,66.9,63.2,29.89,ENE,65,0.0,0.0,88,0.00,,,0.00,Wunderground v.1.15,2013-10-15 12:21:00,
2013-10-15 08:26:00,66.9,63.2,29.89,ENE,75,0.0,0.0,88,0.00,,,0.00,Wunderground v.1.15,2013-10-15 12:26:00,
2013-10-15 08:31:00,66.9,63.2,29.89,NNE,30,0.0,0.0,88,0.00,,,0.00,Wunderground v.1.15,2013-10-15 12:31:00,
2013-10-15 08:36:00,66.9,63.2,29.89,North,0,0.0,0.0,88,0.00,,,0.00,Wunderground v.1.15,2013-10-15 12:36:00,
2013-10-15 08:41:00,67.1,63.7,29.89,NNW,342,0.0,0.0,89,0.00,,,0.00,Wunderground v.1.15,2013-10-15 12:41:00,
2013-10-15 08:46:00,67.3,63.9,29.89,North,349,0.0,2.0,89,0.00,,,0.00,Wunderground v.1.15,2013-10-15 12:46:00,
2013-10-15 08:51:00,67.4,64.0,29.89,North,11,0.0,0.0,89,0.00,,,0.00,Wunderground v.1.15,2013-10-15 12:51:00,
2013-10-15 08:56:00,67.6,63.9,29.89,North,0,0.0,2.0,88,0.00,,,0.00,Wunderground v.1.15,2013-10-15 12:56:00,
2013-10-15 09:01:00,67.6,63.9,29.89,North,0,0.0,1.0,88,0.00,,,0.00,Wunderground v.1.15,2013-10-15 13:01:00,
2013-10-15 09:06:00,67.6,64.2,29.89,North,0,0.0,1.0,89,0.00,,,0.00,Wunderground v.1.15,2013-10-15 13:06:00,
2013-10-15 09:11:00,67.6,63.9,29.89,North,349,0.0,1.0,88,0.00,,,0.00,Wunderground v.1.15,2013-10-15 13:11:00,
2013-10-15 09:16:00,67.6,64.2,29.90,North,359,0.0,1.0,89,0.00,,,0.00,Wunderground v.1.15,2013-10-15 13:16:00,
2013-10-15 09:21:00,67.8,64.4,29.90,ESE,104,0.0,0.0,89,0.00,,,0.00,Wunderground v.1.15,2013-10-15 13:21:00,
2013-10-15 09:26:00,67.8,64.4,29.90,NNW,339,0.0,1.0,89,0.00,,,0.00,Wunderground v.1.15,2013-10-15 13:26:00,
2013-10-15 09:31:00,67.8,64.4,29.90,WNW,299,0.0,0.0,89,0.00,,,0.00,Wunderground v.1.15,2013-10-15 13:31:00,
2013-10-15 09:36:00,68.1,64.7,29.90,WNW,289,0.0,0.0,89,0.00,,,0.00,Wunderground v.1.15,2013-10-15 13:36:00,
2013-10-15 09:41:00,68.3,64.9,29.90,NW,308,0.0,0.0,89,0.00,,,0.00,Wunderground v.1.15,2013-10-15 13:41:00,
2013-10-15 09:46:00,68.3,64.9,29.90,North,354,0.0,0.0,89,0.00,,,0.00,Wunderground v.1.15,2013-10-15 13:46:00,
2013-10-15 09:51:00,68.4,65.0,29.90,ESE,107,0.0,0.0,89,0.00,,,0.00,Wunderground v.1.15,2013-10-15 13:51:00,
2013-10-15 09:56:00,68.4,65.0,29.90,ENE,69,0.0,0.0,89,0.00,,,0.00,Wunderground v.1.15,2013-10-15 13:56:00,
2013-10-15 10:01:00,68.4,65.0,29.90,ENE,68,0.0,0.0,89,0.00,,,0.00,Wunderground v.1.15,2013-10-15 14:01:00,
2013-10-15 10:06:00,68.4,64.7,29.90,ESE,113,0.0,0.0,88,0.00,,,0.00,Wunderground v.1.15,2013-10-15 14:06:00,
2013-10-15 10:11:00,68.4,64.7,29.90,East,88,0.0,0.0,88,0.00,,,0.00,Wunderground v.1.15,2013-10-15 14:11:00,
2013-10-15 10:16:00,68.4,65.0,29.90,NNE,24,1.0,6.0,89,0.00,,,0.00,Wunderground v.1.15,2013-10-15 14:16:00,
2013-10-15 10:21:00,68.8,65.4,29.90,ESE,107,0.0,0.0,89,0.00,,,0.00,Wunderground v.1.15,2013-10-15 14:21:00,
2013-10-15 10:26:00,68.9,65.5,29.90,East,79,0.0,0.0,89,0.00,,,0.00,Wunderground v.1.15,2013-10-15 14:26:00,
2013-10-15 10:31:00,69.1,65.7,29.90,North,0,0.0,0.0,89,0.00,,,0.00,Wunderground v.1.15,2013-10-15 14:31:00,
2013-10-15 10:36:00,69.3,65.9,29.90,North,0,0.0,0.0,89,0.00,,,0.00,Wunderground v.1.15,2013-10-15 14:36:00,
2013-10-15 10:41:00,69.4,66.0,29.90,North,350,0.0,1.0,89,0.00,,,0.00,Wunderground v.1.15,2013-10-15 14:41:00,
2013-10-15 10:46:00,69.8,66.1,29.90,NW,326,0.0,1.0,88,0.00,,,0.00,Wunderground v.1.15,2013-10-15 14:46:00,
2013-10-15 10:51:00,69.8,66.1,29.90,NE,48,0.0,0.0,88,0.00,,,0.00,Wunderground v.1.15,2013-10-15 14:51:00,
2013-10-15 10:56:00,69.9,66.2,29.90,NW,306,0.0,0.0,88,0.00,,,0.00,Wunderground v.1.15,2013-10-15 14:56:00,
2013-10-15 11:01:00,70.3,66.6,29.89,East,93,0.0,1.0,88,0.00,,,0.00,Wunderground v.1.15,2013-10-15 15:01:00,
2013-10-15 11:06:00,70.3,66.6,29.89,North,356,0.0,1.0,88,0.00,,,0.00,Wunderground v.1.15,2013-10-15 15:06:00,
2013-10-15 11:11:00,70.6,66.9,29.89,North,356,0.0,0.0,88,0.00,,,0.00,Wunderground v.1.15,2013-10-15 15:11:00,
2013-10-15 11:16:00,70.9,67.2,29.89,North,6,0.0,0.0,88,0.00,,,0.00,Wunderground v.1.15,2013-10-15 15:16:00,
2013-10-15 11:22:00,71.3,67.6,29.89,North,6,0.0,0.0,88,0.00,,,0.00,Wunderground v.1.15,2013-10-15 15:22:00,
2013-10-15 11:27:00,71.5,67.8,29.89,ESE,103,0.0,0.0,88,0.00,,,0.00,Wunderground v.1.15,2013-10-15 15:27:00,
2013-10-15 11:32:00,71.6,67.5,29.89,ESE,104,0.0,0.0,87,0.00,,,0.00,Wunderground v.1.15,2013-10-15 15:32:00,
2013-10-15 11:37:00,71.8,67.7,29.89,North,0,0.0,0.0,87,0.00,,,0.00,Wunderground v.1.15,2013-10-15 15:37:00,
2013-10-15 11:42:00,72.1,68.0,29.89,ENE,78,0.0,0.0,87,0.00,,,0.00,Wunderground v.1.15,2013-10-15 15:42:00,
2013-10-15 11:47:00,72.3,68.2,29.89,SE,133,0.0,3.0,87,0.00,,,0.00,Wunderground v.1.15,2013-10-15 15:47:00,
2013-10-15 11:52:00,72.8,68.4,29.89,East,93,2.0,6.0,86,0.00,,,0.00,Wunderground v.1.15,2013-10-15 15:52:00,
2013-10-15 11:57:00,73.2,68.8,29.89,NNE,14,0.0,6.0,86,0.00,,,0.00,Wunderground v.1.15,2013-10-15 15:57:00,
2013-10-15 12:02:00,73.5,68.7,29.88,East,90,3.0,3.0,85,0.00,,,0.00,Wunderground v.1.15,2013-10-15 16:02:00,
2013-10-15 12:07:00,73.9,69.1,29.88,ESE,102,0.0,5.0,85,0.00,,,0.00,Wunderground v.1.15,2013-10-15 16:07:00,
2013-10-15 12:12:00,74.2,69.4,29.88,NW,305,0.0,1.0,85,0.00,,,0.00,Wunderground v.1.15,2013-10-15 16:12:00,
2013-10-15 12:17:00,74.7,69.5,29.88,North,357,0.0,6.0,84,0.00,,,0.00,Wunderground v.1.15,2013-10-15 16:17:00,
2013-10-15 12:22:00,75.4,70.2,29.88,ESE,114,0.0,1.0,84,0.00,,,0.00,Wunderground v.1.15,2013-10-15 16:22:00,
2013-10-15 12:27:00,76.1,70.6,29.88,East,80,0.0,4.0,83,0.00,,,0.00,Wunderground v.1.15,2013-10-15 16:27:00,
2013-10-15 12:32:00,76.7,70.8,29.87,NNW,335,0.0,0.0,82,0.00,,,0.00,Wunderground v.1.15,2013-10-15 16:32:00,
2013-10-15 12:37:00,77.4,71.5,29.87,North,1,0.0,0.0,82,0.00,,,0.00,Wunderground v.1.15,2013-10-15 16:37:00,
2013-10-15 12:42:00,77.7,71.4,29.87,North,8,0.0,0.0,81,0.00,,,0.00,Wunderground v.1.15,2013-10-15 16:42:00,
2013-10-15 12:47:00,78.1,71.8,29.87,ENE,75,0.0,1.0,81,0.00,,,0.00,Wunderground v.1.15,2013-10-15 16:47:00,
2013-10-15 12:52:00,78.6,71.9,29.87,NE,38,0.0,0.0,80,0.00,,,0.00,Wunderground v.1.15,2013-10-15 16:52:00,
2013-10-15 12:57:00,78.8,71.7,29.87,NW,322,0.0,1.0,79,0.00,,,0.00,Wunderground v.1.15,2013-10-15 16:57:00,
2013-10-15 13:02:00,79.0,71.9,29.86,NW,326,0.0,0.0,79,0.00,,,0.00,Wunderground v.1.15,2013-10-15 17:02:00,
2013-10-15 13:07:00,79.2,71.7,29.86,NW,315,0.0,0.0,78,0.00,,,0.00,Wunderground v.1.15,2013-10-15 17:07:00,
2013-10-15 13:12:00,79.4,71.9,29.86,WNW,285,0.0,0.0,78,0.00,,,0.00,Wunderground v.1.15,2013-10-15 17:12:00,
2013-10-15 13:17:00,79.8,71.9,29.85,NW,306,0.0,0.0,77,0.00,,,0.00,Wunderground v.1.15,2013-10-15 17:17:00,
2013-10-15 13:22:00,79.9,71.7,29.85,West,261,0.0,5.0,76,0.00,,,0.00,Wunderground v.1.15,2013-10-15 17:22:00,
2013-10-15 13:27:00,80.1,71.8,29.85,WNW,299,4.0,5.0,76,0.00,,,0.00,Wunderground v.1.15,2013-10-15 17:27:00,
2013-10-15 13:32:00,80.3,72.0,29.84,NNW,336,6.0,6.0,76,0.00,,,0.00,Wunderground v.1.15,2013-10-15 17:32:00,
2013-10-15 13:37:00,80.7,72.4,29.84,North,0,0.0,6.0,76,0.00,,,0.00,Wunderground v.1.15,2013-10-15 17:37:00,
2013-10-15 13:42:00,80.7,72.0,29.84,West,277,0.0,0.0,75,0.00,,,0.00,Wunderground v.1.15,2013-10-15 17:42:00,
2013-10-15 13:47:00,80.9,72.2,29.84,NW,319,0.0,0.0,75,0.00,,,0.00,Wunderground v.1.15,2013-10-15 17:47:00,
2013-10-15 13:52:00,81.2,72.1,29.84,NW,316,0.0,1.0,74,0.00,,,0.00,Wunderground v.1.15,2013-10-15 17:52:00,
2013-10-15 13:57:00,81.4,72.3,29.84,North,4,0.0,1.0,74,0.00,,,0.00,Wunderground v.1.15,2013-10-15 17:57:00,
2013-10-15 14:02:00,81.4,71.9,29.83,North,4,0.0,0.0,73,0.00,,,0.00,Wunderground v.1.15,2013-10-15 18:02:00,
2013-10-15 14:07:00,81.2,71.7,29.83,NNW,340,0.0,5.0,73,0.00,,,0.00,Wunderground v.1.15,2013-10-15 18:07:00,
2013-10-15 14:12:00,81.2,71.3,29.83,NNW,347,4.0,5.0,72,0.00,,,0.00,Wunderground v.1.15,2013-10-15 18:12:00,
2013-10-15 14:17:00,81.1,71.2,29.83,NNE,25,5.0,5.0,72,0.00,,,0.00,Wunderground v.1.15,2013-10-15 18:17:00,
2013-10-15 14:22:00,80.9,71.0,29.83,WSW,258,5.0,6.0,72,0.00,,,0.00,Wunderground v.1.15,2013-10-15 18:22:00,
2013-10-15 14:27:00,80.9,71.4,29.83,NNW,329,0.0,6.0,73,0.00,,,0.00,Wunderground v.1.15,2013-10-15 18:27:00,
2013-10-15 14:33:00,80.7,70.8,29.82,WNW,299,0.0,4.0,72,0.00,,,0.00,Wunderground v.1.15,2013-10-15 18:33:00,
2013-10-15 14:38:00,80.5,70.6,29.82,North,357,0.0,4.0,72,0.00,,,0.00,Wunderground v.1.15,2013-10-15 18:38:00,
2013-10-15 14:43:00,80.5,70.6,29.82,North,349,0.0,0.0,72,0.00,,,0.00,Wunderground v.1.15,2013-10-15 18:43:00,
2013-10-15 14:48:00,80.3,70.4,29.81,North,0,0.0,6.0,72,0.00,,,0.00,Wunderground v.1.15,2013-10-15 18:48:00,
2013-10-15 14:53:00,80.1,70.3,29.81,North,353,0.0,0.0,72,0.00,,,0.00,Wunderground v.1.15,2013-10-15 18:53:00,
2013-10-15 14:58:00,80.1,70.3,29.81,NNE,17,0.0,1.0,72,0.00,,,0.00,Wunderground v.1.15,2013-10-15 18:58:00,
2013-10-15 15:03:00,80.1,70.3,29.81,NW,323,0.0,3.0,72,0.00,,,0.00,Wunderground v.1.15,2013-10-15 19:03:00,
2013-10-15 15:08:00,80.1,70.3,29.81,North,349,0.0,6.0,72,0.00,,,0.00,Wunderground v.1.15,2013-10-15 19:08:00,
2013-10-15 15:13:00,79.9,70.1,29.81,NNE,18,0.0,3.0,72,0.00,,,0.00,Wunderground v.1.15,2013-10-15 19:13:00,
2013-10-15 15:18:00,79.9,70.1,29.81,North,356,0.0,6.0,72,0.00,,,0.00,Wunderground v.1.15,2013-10-15 19:18:00,
2013-10-15 15:23:00,80.1,70.3,29.81,North,349,5.0,7.0,72,0.00,,,0.00,Wunderground v.1.15,2013-10-15 19:23:00,
2013-10-15 15:28:00,80.3,70.4,29.81,North,350,1.0,7.0,72,0.00,,,0.00,Wunderground v.1.15,2013-10-15 19:28:00,
2013-10-15 15:33:00,80.5,70.2,29.81,ENE,73,0.0,1.0,71,0.00,,,0.00,Wunderground v.1.15,2013-10-15 19:33:00,
2013-10-15 15:38:00,80.5,70.2,29.81,NNW,333,2.0,7.0,71,0.00,,,0.00,Wunderground v.1.15,2013-10-15 19:38:00,
2013-10-15 15:43:00,80.5,70.2,29.81,NNW,344,0.0,5.0,71,0.00,,,0.00,Wunderground v.1.15,2013-10-15 19:43:00,
2013-10-15 15:48:00,80.5,70.2,29.81,NNW,333,0.0,7.0,71,0.00,,,0.00,Wunderground v.1.15,2013-10-15 19:48:00,
2013-10-15 15:53:00,80.5,70.2,29.81,North,0,0.0,1.0,71,0.00,,,0.00,Wunderground v.1.15,2013-10-15 19:53:00,
2013-10-15 15:58:00,80.7,70.4,29.81,WNW,294,0.0,6.0,71,0.00,,,0.00,Wunderground v.1.15,2013-10-15 19:58:00,
2013-10-15 16:03:00,80.9,70.2,29.81,North,352,5.0,7.0,70,0.00,,,0.00,Wunderground v.1.15,2013-10-15 20:03:00,
2013-10-15 16:08:00,80.9,70.2,29.81,North,357,5.0,7.0,70,0.00,,,0.00,Wunderground v.1.15,2013-10-15 20:08:00,
2013-10-15 16:13:00,81.1,70.4,29.81,NNW,344,0.0,1.0,70,0.00,,,0.00,Wunderground v.1.15,2013-10-15 20:13:00,
2013-10-15 16:18:00,81.1,70.4,29.80,WNW,295,3.0,5.0,70,0.00,,,0.00,Wunderground v.1.15,2013-10-15 20:18:00,
2013-10-15 16:23:00,81.1,70.0,29.80,North,356,1.0,5.0,69,0.00,,,0.00,Wunderground v.1.15,2013-10-15 20:23:00,
2013-10-15 16:28:00,81.1,70.0,29.80,NNW,333,0.0,5.0,69,0.00,,,0.00,Wunderground v.1.15,2013-10-15 20:28:00,
2013-10-15 16:33:00,80.9,69.8,29.80,NW,319,1.0,6.0,69,0.00,,,0.00,Wunderground v.1.15,2013-10-15 20:33:00,
2013-10-15 16:38:00,80.7,69.6,29.80,NNW,336,0.0,6.0,69,0.00,,,0.00,Wunderground v.1.15,2013-10-15 20:38:00,
2013-10-15 16:43:00,80.5,69.4,29.80,NW,322,4.0,8.0,69,0.00,,,0.00,Wunderground v.1.15,2013-10-15 20:43:00,
2013-10-15 16:48:00,80.3,69.2,29.80,NNE,30,4.0,8.0,69,0.00,,,0.00,Wunderground v.1.15,2013-10-15 20:48:00,
2013-10-15 16:53:00,80.1,69.0,29.80,North,359,0.0,4.0,69,0.00,,,0.00,Wunderground v.1.15,2013-10-15 20:53:00,
2013-10-15 16:58:00,80.1,69.0,29.80,North,0,0.0,4.0,69,0.00,,,0.00,Wunderground v.1.15,2013-10-15 20:58:00,
2013-10-15 17:03:00,79.9,69.2,29.80,North,353,5.0,11.0,70,0.00,,,0.00,Wunderground v.1.15,2013-10-15 21:03:00,
2013-10-15 17:08:00,79.8,69.1,29.80,NNW,329,0.0,11.0,70,0.00,,,0.00,Wunderground v.1.15,2013-10-15 21:08:00,
2013-10-15 17:13:00,79.6,69.0,29.80,NNW,330,1.0,7.0,70,0.00,,,0.00,Wunderground v.1.15,2013-10-15 21:13:00,
2013-10-15 17:18:00,79.4,68.8,29.80,NNW,344,6.0,7.0,70,0.00,,,0.00,Wunderground v.1.15,2013-10-15 21:18:00,
2013-10-15 17:23:00,79.0,68.8,29.80,NW,325,0.0,7.0,71,0.00,,,0.00,Wunderground v.1.15,2013-10-15 21:23:00,
2013-10-15 17:28:00,79.0,68.8,29.80,NNW,346,0.0,7.0,71,0.00,,,0.00,Wunderground v.1.15,2013-10-15 21:28:00,
2013-10-15 17:33:00,78.8,68.6,29.81,North,3,0.0,2.0,71,0.00,,,0.00,Wunderground v.1.15,2013-10-15 21:33:00,
2013-10-15 17:38:00,78.6,68.4,29.81,North,349,0.0,9.0,71,0.00,,,0.00,Wunderground v.1.15,2013-10-15 21:38:00,
2013-10-15 17:43:00,78.6,68.4,29.81,North,0,0.0,3.0,71,0.00,,,0.00,Wunderground v.1.15,2013-10-15 21:43:00,
2013-10-15 17:48:00,78.5,68.7,29.81,WNW,285,1.0,3.0,72,0.00,,,0.00,Wunderground v.1.15,2013-10-15 21:48:00,
2013-10-15 17:53:00,78.3,68.5,29.81,North,0,2.0,6.0,72,0.00,,,0.00,Wunderground v.1.15,2013-10-15 21:53:00,
2013-10-15 17:59:00,78.1,68.3,29.81,North,359,0.0,6.0,72,0.00,,,0.00,Wunderground v.1.15,2013-10-15 21:59:00,
2013-10-15 18:04:00,77.9,68.1,29.81,North,356,0.0,5.0,72,0.00,,,0.00,Wunderground v.1.15,2013-10-15 22:04:00,
2013-10-15 18:09:00,77.7,68.0,29.81,NNW,346,0.0,5.0,72,0.00,,,0.00,Wunderground v.1.15,2013-10-15 22:09:00,
2013-10-15 18:14:00,77.7,68.0,29.81,NW,316,0.0,5.0,72,0.00,,,0.00,Wunderground v.1.15,2013-10-15 22:14:00,
2013-10-15 18:19:00,77.6,67.9,29.81,West,281,0.0,5.0,72,0.00,,,0.00,Wunderground v.1.15,2013-10-15 22:19:00,
2013-10-15 18:24:00,77.4,68.1,29.81,North,357,0.0,6.0,73,0.00,,,0.00,Wunderground v.1.15,2013-10-15 22:24:00,
2013-10-15 18:29:00,77.2,67.9,29.81,NW,322,0.0,6.0,73,0.00,,,0.00,Wunderground v.1.15,2013-10-15 22:29:00,
2013-10-15 18:34:00,77.2,67.9,29.81,NW,326,0.0,0.0,73,0.00,,,0.00,Wunderground v.1.15,2013-10-15 22:34:00,
2013-10-15 18:39:00,77.0,67.7,29.81,NNW,346,0.0,6.0,73,0.00,,,0.00,Wunderground v.1.15,2013-10-15 22:39:00,
2013-10-15 18:44:00,76.8,67.5,29.81,NNW,330,0.0,7.0,73,0.00,,,0.00,Wunderground v.1.15,2013-10-15 22:44:00,
2013-10-15 18:49:00,76.7,67.4,29.81,NNW,340,0.0,7.0,73,0.00,,,0.00,Wunderground v.1.15,2013-10-15 22:49:00,
2013-10-15 18:54:00,76.7,67.8,29.81,NNW,332,0.0,0.0,74,0.00,,,0.00,Wunderground v.1.15,2013-10-15 22:54:00,
2013-10-15 18:59:00,76.5,67.6,29.81,North,6,0.0,1.0,74,0.00,,,0.00,Wunderground v.1.15,2013-10-15 22:59:00,
2013-10-15 19:04:00,76.3,67.4,29.81,North,352,0.0,0.0,74,0.00,,,0.00,Wunderground v.1.15,2013-10-15 23:04:00,
2013-10-15 19:09:00,76.3,67.4,29.81,North,0,0.0,0.0,74,0.00,,,0.00,Wunderground v.1.15,2013-10-15 23:09:00,
2013-10-15 19:14:00,76.1,67.6,29.81,North,349,0.0,1.0,75,0.00,,,0.00,Wunderground v.1.15,2013-10-15 23:14:00,
2013-10-15 19:19:00,76.0,67.5,29.81,North,350,0.0,1.0,75,0.00,,,0.00,Wunderground v.1.15,2013-10-15 23:19:00,
2013-10-15 19:24:00,75.8,67.3,29.81,North,354,0.0,0.0,75,0.00,,,0.00,Wunderground v.1.15,2013-10-15 23:24:00,
2013-10-15 19:29:00,75.8,67.3,29.81,North,0,0.0,1.0,75,0.00,,,0.00,Wunderground v.1.15,2013-10-15 23:29:00,
2013-10-15 19:34:00,75.6,67.5,29.82,North,0,0.0,0.0,76,0.00,,,0.00,Wunderground v.1.15,2013-10-15 23:34:00,
2013-10-15 19:39:00,75.4,67.3,29.82,North,0,0.0,0.0,76,0.00,,,0.00,Wunderground v.1.15,2013-10-15 23:39:00,
2013-10-15 19:44:00,75.3,67.2,29.82,North,0,0.0,0.0,76,0.00,,,0.00,Wunderground v.1.15,2013-10-15 23:44:00,
2013-10-15 19:49:00,75.3,67.2,29.83,North,0,0.0,0.0,76,0.00,,,0.00,Wunderground v.1.15,2013-10-15 23:49:00,
2013-10-15 19:54:00,75.1,67.0,29.83,North,0,0.0,0.0,76,0.00,,,0.00,Wunderground v.1.15,2013-10-15 23:54:00,
2013-10-15 19:59:00,74.9,66.8,29.83,North,0,0.0,0.0,76,0.00,,,0.00,Wunderground v.1.15,2013-10-15 23:59:00,
2013-10-15 20:04:00,74.9,66.8,29.83,North,0,0.0,0.0,76,0.00,,,0.00,Wunderground v.1.15,2013-10-16 00:04:00,
2013-10-15 20:09:00,74.7,67.0,29.83,North,0,0.0,0.0,77,0.00,,,0.00,Wunderground v.1.15,2013-10-16 00:09:00,
2013-10-15 20:14:00,74.6,66.9,29.83,North,0,0.0,3.0,77,0.00,,,0.00,Wunderground v.1.15,2013-10-16 00:14:00,
2013-10-15 20:19:00,74.6,66.9,29.84,North,0,0.0,3.0,77,0.00,,,0.00,Wunderground v.1.15,2013-10-16 00:19:00,
2013-10-15 20:24:00,74.4,66.7,29.84,North,0,0.0,1.0,77,0.00,,,0.00,Wunderground v.1.15,2013-10-16 00:24:00,
2013-10-15 20:29:00,74.2,66.9,29.84,NNE,31,0.0,6.0,78,0.00,,,0.00,Wunderground v.1.15,2013-10-16 00:29:00,
2013-10-15 20:34:00,74.2,66.9,29.84,NNE,20,5.0,5.0,78,0.00,,,0.00,Wunderground v.1.15,2013-10-16 00:34:00,
2013-10-15 20:39:00,74.2,67.3,29.84,NNE,28,0.0,8.0,79,0.00,,,0.00,Wunderground v.1.15,2013-10-16 00:39:00,
2013-10-15 20:44:00,74.2,67.3,29.84,NNW,342,0.0,6.0,79,0.00,,,0.00,Wunderground v.1.15,2013-10-16 00:44:00,
2013-10-15 20:49:00,74.0,67.1,29.85,NNE,31,0.0,6.0,79,0.00,,,0.00,Wunderground v.1.15,2013-10-16 00:49:00,
2013-10-15 20:54:00,74.0,67.1,29.85,NNW,343,0.0,3.0,79,0.00,,,0.00,Wunderground v.1.15,2013-10-16 00:54:00,
2013-10-15 20:59:00,74.0,67.1,29.85,North,352,0.0,5.0,79,0.00,,,0.00,Wunderground v.1.15,2013-10-16 00:59:00,
2013-10-15 21:04:00,73.9,67.0,29.85,North,0,0.0,6.0,79,0.00,,,0.00,Wunderground v.1.15,2013-10-16 01:04:00,
2013-10-15 21:09:00,73.9,67.0,29.85,North,349,0.0,6.0,79,0.00,,,0.00,Wunderground v.1.15,2013-10-16 01:09:00,
2013-10-15 21:14:00,73.7,66.8,29.85,North,359,1.0,1.0,79,0.00,,,0.00,Wunderground v.1.15,2013-10-16 01:14:00,
2013-10-15 21:19:00,73.7,66.8,29.85,North,0,0.0,2.0,79,0.00,,,0.00,Wunderground v.1.15,2013-10-16 01:19:00,
2013-10-15 21:24:00,73.5,66.9,29.85,North,0,1.0,1.0,80,0.00,,,0.00,Wunderground v.1.15,2013-10-16 01:24:00,
2013-10-15 21:29:00,73.3,66.8,29.85,NNE,14,0.0,3.0,80,0.00,,,0.00,Wunderground v.1.15,2013-10-16 01:29:00,
2013-10-15 21:34:00,73.2,66.7,29.86,NE,41,0.0,5.0,80,0.00,,,0.00,Wunderground v.1.15,2013-10-16 01:34:00,
2013-10-15 21:39:00,73.2,66.7,29.86,North,0,0.0,5.0,80,0.00,,,0.00,Wunderground v.1.15,2013-10-16 01:39:00,
2013-10-15 21:44:00,73.0,66.5,29.86,North,3,0.0,1.0,80,0.00,,,0.00,Wunderground v.1.15,2013-10-16 01:44:00,
2013-10-15 21:49:00,73.0,66.5,29.86,North,1,0.0,1.0,80,0.00,,,0.00,Wunderground v.1.15,2013-10-16 01:49:00,
2013-10-15 21:54:00,72.8,66.3,29.86,North,3,0.0,0.0,80,0.00,,,0.00,Wunderground v.1.15,2013-10-16 01:54:00,
2013-10-15 21:59:00,72.7,66.2,29.86,NNE,16,0.0,1.0,80,0.00,,,0.00,Wunderground v.1.15,2013-10-16 01:59:00,
2013-10-15 22:04:00,72.7,66.5,29.87,NNE,20,0.0,2.0,81,0.00,,,0.00,Wunderground v.1.15,2013-10-16 02:04:00,
2013-10-15 22:10:00,72.5,66.3,29.87,NNE,20,0.0,3.0,81,0.00,,,0.00,Wunderground v.1.15,2013-10-16 02:10:00,
2013-10-15 22:15:00,72.5,66.3,29.87,NNE,13,0.0,1.0,81,0.00,,,0.00,Wunderground v.1.15,2013-10-16 02:15:00,
2013-10-15 22:20:00,72.3,66.1,29.87,North,4,0.0,1.0,81,0.00,,,0.00,Wunderground v.1.15,2013-10-16 02:20:00,
2013-10-15 22:25:00,72.3,66.1,29.87,North,1,0.0,0.0,81,0.00,,,0.00,Wunderground v.1.15,2013-10-16 02:25:00,
2013-10-15 22:30:00,72.1,65.9,29.87,North,3,0.0,1.0,81,0.00,,,0.00,Wunderground v.1.15,2013-10-16 02:30:00,
2013-10-15 22:35:00,72.1,65.9,29.87,North,11,0.0,0.0,81,0.00,,,0.00,Wunderground v.1.15,2013-10-16 02:35:00,
2013-10-15 22:40:00,72.0,66.2,29.87,North,0,0.0,1.0,82,0.00,,,0.00,Wunderground v.1.15,2013-10-16 02:40:00,
2013-10-15 22:45:00,72.0,66.2,29.87,NW,326,0.0,3.0,82,0.00,,,0.00,Wunderground v.1.15,2013-10-16 02:45:00,
2013-10-15 22:50:00,72.1,66.3,29.87,North,0,0.0,4.0,82,0.00,,,0.00,Wunderground v.1.15,2013-10-16 02:50:00,
2013-10-15 22:55:00,72.1,66.3,29.87,WNW,299,0.0,5.0,82,0.00,,,0.00,Wunderground v.1.15,2013-10-16 02:55:00,
2013-10-15 23:00:00,72.1,66.3,29.87,NW,313,0.0,5.0,82,0.00,,,0.00,Wunderground v.1.15,2013-10-16 03:00:00,
2013-10-15 23:05:00,72.1,66.3,29.87,NNE,18,0.0,5.0,82,0.00,,,0.00,Wunderground v.1.15,2013-10-16 03:05:00,
2013-10-15 23:10:00,72.1,66.3,29.87,North,0,0.0,5.0,82,0.00,,,0.00,Wunderground v.1.15,2013-10-16 03:10:00,
2013-10-15 23:15:00,72.1,66.6,29.87,North,1,0.0,5.0,83,0.00,,,0.00,Wunderground v.1.15,2013-10-16 03:15:00,
2013-10-15 23:20:00,72.1,66.6,29.87,ESE,102,0.0,5.0,83,0.00,,,0.00,Wunderground v.1.15,2013-10-16 03:20:00,
2013-10-15 23:25:00,72.1,66.6,29.87,ESE,106,0.0,1.0,83,0.00,,,0.00,Wunderground v.1.15,2013-10-16 03:25:00,
2013-10-15 23:30:00,72.1,66.6,29.87,North,10,0.0,1.0,83,0.00,,,0.00,Wunderground v.1.15,2013-10-16 03:30:00,
2013-10-15 23:35:00,72.1,66.6,29.87,North,6,0.0,2.0,83,0.00,,,0.00,Wunderground v.1.15,2013-10-16 03:35:00,
2013-10-15 23:40:00,72.1,66.6,29.87,North,0,0.0,2.0,83,0.00,,,0.00,Wunderground v.1.15,2013-10-16 03:40:00,
2013-10-15 23:45:00,72.1,66.6,29.87,East,79,0.0,7.0,83,0.00,,,0.00,Wunderground v.1.15,2013-10-16 03:45:00,
2013-10-15 23:50:00,72.1,66.6,29.86,NNE,21,0.0,7.0,83,0.00,,,0.00,Wunderground v.1.15,2013-10-16 03:50:00,
2013-10-15 23:55:00,72.1,66.6,29.86,NNE,20,0.0,0.0,83,0.00,,,0.00,Wunderground v.1.15,2013-10-16 03:55:00,